Location: Charlotte
(35.2269°N, 80.8433°W)
Time: 10:35:11
(UTC-04:00)

ISS - Visible Passes

Search period start: 20 August 2014 00:00
Search period end: 30 August 2014 00:00
Orbit: 413 x 419 km, 51.6° (Epoch: 20 August)

Date Brightness Start Highest point End Pass type
(mag) Time Alt. Az. Time Alt. Az. Time Alt. Az.
20 Aug -2.4 21:58:04 10° NW 22:00:43 43° N 22:00:43 43° N visible
21 Aug -2.0 21:09:48 10° NNW 21:12:46 29° NE 21:14:07 22° ENE visible
21 Aug 0.0 22:46:42 10° WNW 22:47:01 12° W 22:47:01 12° W visible
22 Aug -2.2 21:57:48 10° WNW 22:00:30 40° WSW 22:00:30 40° WSW visible
23 Aug -3.4 21:09:11 10° NW 21:12:31 89° SW 21:14:02 30° SE visible
24 Aug -0.6 21:58:40 10° W 22:00:23 13° SW 22:00:34 13° SW visible
25 Aug -1.4 21:09:11 10° WNW 21:11:59 25° SW 21:14:17 13° S visible
26 Aug -2.4 20:20:17 10° WNW 20:23:31 49° SW 20:26:44 10° SSE visible
28 Aug -0.5 20:20:50 10° W 20:22:48 15° SW 20:24:45 10° SSW visible
